TimeCST,TemperatureF,Dew PointF,Humidity,Sea Level PressureIn,VisibilityMPH,Wind Direction,Wind SpeedMPH,Gust SpeedMPH,PrecipitationIn,Events,Conditions,WindDirDegrees,DateUTC
12:53 AM,28.9,19.0,67,30.06,10.0,SSW,3.5,-,N/A,,Overcast,200,2014-01-16 06:53:00
1:53 AM,30.0,18.0,61,30.04,10.0,South,6.9,-,N/A,,Overcast,190,2014-01-16 07:53:00
2:53 AM,30.9,18.0,59,30.01,10.0,South,8.1,-,N/A,,Overcast,180,2014-01-16 08:53:00
3:53 AM,30.9,17.1,57,29.99,10.0,SSW,10.4,-,N/A,,Overcast,200,2014-01-16 09:53:00
4:53 AM,32.0,19.0,59,29.97,10.0,South,8.1,-,N/A,,Overcast,180,2014-01-16 10:53:00
5:53 AM,32.0,19.0,59,29.93,10.0,South,10.4,-,N/A,,Overcast,180,2014-01-16 11:53:00
6:53 AM,33.1,19.0,56,29.91,10.0,South,11.5,-,N/A,,Overcast,180,2014-01-16 12:53:00
7:53 AM,33.1,19.0,56,29.91,10.0,South,12.7,-,N/A,,Mostly Cloudy,190,2014-01-16 13:53:00
8:53 AM,34.0,21.0,59,29.88,10.0,South,12.7,-,N/A,,Mostly Cloudy,190,2014-01-16 14:53:00
9:53 AM,39.0,23.0,53,29.89,10.0,SW,16.1,25.3,N/A,,Clear,230,2014-01-16 15:53:00
10:53 AM,39.9,24.1,53,29.86,10.0,SSW,17.3,-,N/A,,Clear,210,2014-01-16 16:53:00
11:53 AM,43.0,26.1,51,29.80,10.0,SSW,16.1,-,N/A,,Clear,210,2014-01-16 17:53:00
12:53 PM,46.0,28.0,50,29.77,10.0,SSW,12.7,-,N/A,,Partly Cloudy,200,2014-01-16 18:53:00
1:53 PM,48.0,30.9,52,29.76,10.0,South,12.7,-,N/A,,Mostly Cloudy,190,2014-01-16 19:53:00
2:53 PM,48.9,30.9,50,29.77,10.0,SSW,8.1,-,N/A,,Mostly Cloudy,200,2014-01-16 20:53:00
3:20 PM,53.1,21.0,29,29.77,10.0,West,20.7,29.9,N/A,,Mostly Cloudy,280,2014-01-16 21:20:00
3:53 PM,52.0,21.0,30,29.80,10.0,WNW,18.4,25.3,N/A,,Mostly Cloudy,300,2014-01-16 21:53:00
4:53 PM,50.0,19.0,29,29.83,10.0,WNW,15.0,24.2,N/A,,Scattered Clouds,290,2014-01-16 22:53:00
5:53 PM,48.0,19.9,33,29.86,10.0,WNW,10.4,-,N/A,,Mostly Cloudy,300,2014-01-16 23:53:00
6:53 PM,46.0,19.0,34,29.87,10.0,West,11.5,-,N/A,,Partly Cloudy,280,2014-01-17 00:53:00
7:53 PM,44.1,19.0,37,29.88,10.0,West,5.8,-,N/A,,Mostly Cloudy,260,2014-01-17 01:53:00
8:53 PM,43.0,19.0,38,29.88,10.0,West,5.8,-,N/A,,Clear,270,2014-01-17 02:53:00
9:53 PM,37.9,21.0,51,29.89,10.0,WSW,4.6,-,N/A,,Mostly Cloudy,250,2014-01-17 03:53:00
10:53 PM,42.1,24.1,49,29.89,10.0,West,11.5,-,N/A,,Partly Cloudy,280,2014-01-17 04:53:00
11:53 PM,39.0,24.1,55,29.88,10.0,SW,3.5,-,N/A,,Clear,230,2014-01-17 05:53:00